Regional Weather Roundup
Issued by NWS Grand Forks, ND

Home | Current Version | Previous Version | Graphics & Text | Print | Product List | Glossary On
Versions: 1 2 3 4 5 6 7 8 9 10 11 12 13 14 15 16 17 18 19 20 21 22 23 24 25 26 27 28 29 30 31 32 33 34 35 36 37 38 39 40 41 42 43 44 45 46 47 48 49 50
000
ASUS43 KFGF 261910
RWRFGF
PRAIRIE TO PINES  WEATHER ROUNDUP
NATIONAL WEATHER SERVICE EASTERN NORTH DAKOTA/GRAND FORKS ND
100 PM CST MON JAN 26 2015

 **SATELLITE DATA USED TO AUGMENT SKY COVER AT AUTOMATED STATIONS**
 *****  WEATHER ACROSS EASTERN NORTH DAKOTA  *****

CITY           SKY/WX    TMP DP  RH WIND       PRES   REMARKS
GRAND FORKS    CLOUDY    34  28  79 N25G32    29.86R WCI  21
GRAND FRKS AFB CLOUDY    36  29  77 N17G23    29.86R
GRAND FRKS NWS   N/A     32 N/A N/A N21         N/A  WCI  20
DEVILS LAKE    SUNNY     37  30  75 NW16      29.89R
FARGO          CLOUDY    42  32  67 NW21      29.84R
WAHPETON ARPT  CLEAR     41  32  70 NW14      29.83R
$$

 ***** WEATHER ACROSS CENTRAL AND WESTERN NORTH DAKOTA  *****

CITY           SKY/WX    TMP DP  RH WIND       PRES   REMARKS
BISMARCK       SUNNY     48  29  47 N12       29.96F
MINOT          SUNNY     43  32  65 W10       29.94S
JAMESTOWN      SUNNY     40  32  73 NW23G32   29.87F
MINOT AFB      SUNNY     40  37  86 W13       29.93F
GARRISON         N/A     44  35  70 NW12      29.95F
WILLISTON      SUNNY     47  31  53 W5        29.96F
DICKINSON      SUNNY     49  32  52 W10       29.97F
HETTINGER      MOSUNNY   51  31  46 W12       30.00F
$$

 *****  OTHER AIRPORT OBSERVATIONS IN OUR AREA  *****

CITY           SKY/WX    TMP DP  RH WIND       PRES   REMARKS
WALHALLA         N/A     32  30  93 N20G29    29.89R WCI  20
GRAFTON AIRPOR NOT AVBL
VALLEY CITY AR FAIR      41  36  81 NW23G31   29.87R
CANDO          FAIR      39  32  75 NW14      29.90R
CAVALIER APRT  CLOUDY    28  25  86 N17G24    29.88S WCI  16
GWINNER        CLEAR     43  36  75 NW23G31   29.88S
SHEYENNE NWR     N/A     44  33  65 NW15      29.95S
ROLLA          FAIR      36  32  87 NW20      29.89S
 ***** THE ABOVE OBSERVATIONS ARE NON NWS ARE NOT QUALITY
       CONTROLLED AND MAY MIS-REPORT RAIN FOR SNOW...
$$

  *****  WEATHER ACROSS NORTHERN MINNESOTA  *****

CITY           SKY/WX    TMP DP  RH WIND       PRES   REMARKS
FLAG ISLAND    CLOUDY    27  25  93 N22       29.75R WCI  12
WARROAD        CLOUDY    30  27  86 NW15      29.76S WCI  19
ROSEAU         CLOUDY    32  27  80 NW18      29.78R WCI  20
HALLOCK        CLOUDY    30  27  86 NW16G26   29.85R WCI  19
THF RVR FALLS  CLOUDY    32  28  86 NW22      29.80R WCI  19
BAUDETTE       CLOUDY    30  26  85 N20G26    29.72R WCI  17
WASKISH        CLOUDY    36  30  80 NW13      29.72R
CROOKSTON      CLOUDY    34  28  80 N24G32    29.84R WCI  21
STEPHEN NDAWN    N/A     30  27  86 N20         N/A  WCI  18
GREENBUSH NDAW   N/A     28  27  93 N20         N/A  WCI  15
$$
  *****  WEATHER ACROSS CENTRAL AND WEST MINNESOTA  *****

CITY           SKY/WX    TMP DP  RH WIND       PRES   REMARKS
FOSSTON        PTSUNNY   34  28  80 NW16      29.78R WCI  23
BEMIDJI        CLOUDY    35  30  82 NW20      29.72R WCI  24
PARK RAPIDS    CLOUDY    38  28  67 NW24G37   29.71R
ELBOW LAKE     FAIR      38  33  81 NW17      29.80R
WADENA         CLOUDY    37  30  75 NW15G29   29.74R
DETROIT LAKES  CLOUDY    36  32  87 NW25      29.79R
MOORHEAD       CLOUDY    43  37  81 N18       29.84R
FERGUS FALLS   CLOUDY    37  32  81 NW13      29.83R
MORRIS MN      SUNNY     43  36  75 NW24      29.79S
STAPLES        CLOUDY    39  30  70 NW21G29   29.73R
$$
  *****  WEATHER ELSEWHERE ACROSS MINNESOTA  *****

CITY           SKY/WX    TMP DP  RH WIND       PRES   REMARKS
DULUTH         LGT SNOW  27  23  85 W7        29.65R FOG     WCI  19
INTRNTL FALLS  CLOUDY    30  24  78 NW12      29.68R WCI  20
ELY            LGT SNOW  25  21  86 CALM      29.64S
CLOQUET        LGT SNOW  27  27 100 CALM      29.65S
WHEATON        SUNNY     41  34  75 W20G30    29.85S
BRAINERD       CLOUDY    40  31  70 NW15G24   29.70R
HIBBING        LGT SNOW  28  24  85 CALM      29.65R VSB 1
ALEXANDRIA     PTSUNNY   39  31  72 NW20      29.77R
SAINT CLOUD    MOSUNNY   42  32  67 NW14      29.72S
MINNEAPOLIS    PTSUNNY   43  32  65 W15       29.71F
$$

  *****  WEATHER ACROSS SOUTH DAKOTA  *****

CITY           SKY/WX    TMP DP  RH WIND       PRES   REMARKS
SIOUX FALLS    MOSUNNY   47  38  71 NW18      29.89S
BROOKINGS      NOT AVBL
WATERTOWN      SUNNY     42  34  73 NW20G30   29.87R
HURON          SUNNY     49  38  65 NW17G28   29.92F
SISSETON         N/A     43  35  73 NW26G33   29.84R
ABERDEEN       SUNNY     47  37  68 NW16      29.94R
MITCHELL       SUNNY     52  39  61 NW17      29.94F
PIERRE         SUNNY     54  32  43 NW15      30.01R
MOBRIDGE       SUNNY     51  35  54 NW14      29.94F
RAPID CITY     SUNNY     66  29  24 NW24      30.05F
$$

  *****  SOME WEATHER IN NEARBY STATES *****

CITY           SKY/WX    TMP DP  RH WIND       PRES   REMARKS
GLASGOW MT     PTSUNNY   42  35  76 SE5       29.96F
GREAT FALLS MT PTSUNNY   64  28  25 SW22G31   30.02F
CHEYENNE WY    SUNNY     63  19  18 NW16G24   30.27F
SCOTTSBLUFF NE SUNNY     59  36  42 NW9       30.16F
OMAHA NE       MOSUNNY   56  37  49 N14       29.92R
DES MOINES IA  MOSUNNY   50  36  58 NW21      29.82F
DAVENPORT IA   CLOUDY    27  23  85 S13       29.81F WCI  16
CHICAGO IL     FLURRIES  26  17  68 SW8       29.88F WCI  18
EAU CLAIRE WI  CLOUDY    25  22  88 SE6       29.72S WCI  18
LA CROSSE WI   CLOUDY    27  23  85 S9        29.76S WCI  18
$$

  *****  SOME NATIONAL WEATHER *****

CITY           SKY/WX    TMP DP  RH WIND       PRES   REMARKS
LA GUARDIA NY  LGT SNOW  24  20  84 NE21G29   29.89F VSB 1   WCI   9
RALEIGH NC     CLOUDY    48  42  80 CALM      29.59F
ATLANTA GA     CLOUDY    41  32  70 NW17G31   29.85S
NEW ORLEANS LA MOSUNNY   58  36  43 N14       30.08F
OKLAHOMA CITY  SUNNY     71  34  25 W10       30.06F
ALBUQUERQUE NM MOSUNNY   46  26  45 CALM      30.36F
SALT LAKE CITY SUNNY     45  34  65 N7        30.35F
LOS ANGELES CA CLOUDY    74  36  25 E6        30.01F
BOISE ID       PTSUNNY   39  34  81 NE3       30.31F
SEATTLE WA     MOSUNNY   50  46  86 CALM      29.97R
$$

*** WEATHER ACROSS MANITOBA...SASKATCHEWAN AND ONTARIO ***
                ***ONTARIO***

CITY           SKY/WX    TMP DP  RH WIND       PRES   REMARKS
GERALDTON      LGT SNOW  18  14  86 SE7       29.81R WCI   8
THUNDER BAY    FLURRIES  25  21  86 SE12      29.74F WCI  14
SIOUX LOOKOUT  LGT SNOW  21  18  86 N5        29.70R WCI  15
TORONTO        PTSUNNY   18  -2  41 NE14      29.95F WCI   4
BIG TROUT LK   SUNNY      9   3  78 SE5       29.82R WCI   0
PICKLE LAKE    FLURRIES  16  10  79 CALM      29.73R
DRYDEN         CLOUDY    23  21  93 N8        29.69R WCI  14
KENORA         FLURRIES  23  19  86 N14       29.75R WCI  11
$$
                *** MANITOBA***

CITY           SKY/WX    TMP DP  RH WIND       PRES   REMARKS
BRANDON        MOSUNNY   30  25  80 SE2       29.89F
DAUPHIN        CLOUDY    25  21  86 VRB2      29.88F
ISLAND LAKE    CLOUDY    10   7  85 W6        29.82F WCI   1
PILOT MOUND    NOT AVBL
THE PAS        CLOUDY    18  14  86 S6        29.83F WCI   9
THOMPSON       FLURRIES   9   3  78 SW3       29.82F
WINNIPEG       CLOUDY    27  21  80 N20       29.88R WCI  13
LYNN LAKE      LGT SNOW  12  10  92 SW7       29.69F VSB 1   WCI   2
CHURCHILL      PTSUNNY   -9 -13  84 S9        29.85F WCI -27
GILLAM         CLOUDY     0  -6  78 VRB2      29.84F
$$
                ***SASKATCHEWAN***

CITY           SKY/WX    TMP DP  RH WIND       PRES   REMARKS
ESTEVAN        MOSUNNY   41  32  70 W9        29.93F
KINDERSLEY     MOSUNNY   39  28  65 SE7       29.85F
LLOYDMINSTER   PTSUNNY   39  30  70 W9        29.84S
PRINCE ALBERT  PTSUNNY   37  30  75 W8        29.82F
REGINA         CLOUDY    36  32  87 SW3       29.92S
YORKTON        SUNNY     34  28  80 SW10      29.87F
N. BATTLEFORD  PTSUNNY   41  32  70 S5        29.86F
LA RONGE       MOSUNNY   37  32  81 SW7       29.75F
SASKATOON      PTSUNNY   37  30  75 SW7       29.88F
SWIFT CURRENT  MOSUNNY   45  36  70 SW8       29.86F
$$
NOTE: THESE ARE AUTOMATED STATIONS WITH LIMITED QUALITY CONTROL
      "FAIR" INDICATES FEW OR NO CLOUDS BELOW 12,000 FEET WITH NO
      SIGNIFICANT WEATHER AND/OR OBSTRUCTIONS TO VISIBILITY.
      SKY/WX - SKY CONDITION AND SIGNIFICANT WEATHER.
      TMP - AIR TEMPERATURE.    DP   - DEWPOINT TEMPERATURE.
      RH  - RELATIVE HUMIDITY.  PRES - PRESSURE.
      HX  - HEAT INDEX.         WCI  - WIND CHILL INDEX.
$


USA.gov is the U.S. government's official web portal to all federal, state and local government web resources and services.